Location: Caltech
(34.1382°N, 118.1253°W)
Time: 14:42:17
(UTC-07:00)

HO-68 - Visible Passes

Search period start: 29 July 2016 00:00
Search period end: 08 August 2016 00:00
Orbit: 1193 x 1204 km, 100.1° (Epoch: 29 July)

Date Brightness Start Highest point End Pass type
(mag) Time Alt. Az. Time Alt. Az. Time Alt. Az.
29 Jul ? 20:44:04 10° S 20:51:01 51° W 20:58:00 10° NNW visible
30 Jul ? 20:26:56 10° S 20:34:04 69° WSW 20:41:15 10° NNW visible
31 Jul ? 20:09:57 10° SSE 20:17:09 90° WSW 20:24:24 10° NNW visible
31 Jul ? 22:02:52 10° WSW 22:05:36 12° W 22:08:21 10° WNW visible
01 Aug ? 21:43:52 10° SW 21:48:28 18° W 21:53:06 10° NW visible
02 Aug ? 21:25:43 10° SSW 21:31:23 25° W 21:37:05 10° NW visible
03 Aug ? 21:07:58 10° SSW 21:14:19 34° W 21:20:44 10° NW visible
04 Aug ? 20:50:31 10° S 20:57:19 46° W 21:04:11 10° NNW visible
05 Aug ? 20:33:16 10° S 20:40:21 61° WSW 20:47:29 10° NNW visible
06 Aug ? 20:16:14 10° SSE 20:23:25 81° WSW 20:30:40 10° NNW visible
06 Aug ? 22:10:59 10° W 22:11:58 10° W 22:12:58 10° W visible
07 Aug ? 19:59:22 10° SSE 20:06:32 78° ENE 20:13:45 10° NNW visible
07 Aug ? 21:50:50 10° SW 21:54:50 16° W 21:58:50 10° WNW visible
